Regional Weather Roundup
Issued by NWS Kansas City/Pleasant Hill, MO

Home | Current Version | Previous Version | Text Only | Print | Product List | Glossary On
Versions: 1 2 3 4 5 6 7 8 9 10 11 12 13 14 15 16 17 18 19 20 21 22 23 24 25 26 27 28 29 30 31 32 33 34 35 36 37 38 39 40 41 42 43 44 45 46 47 48 49 50
000
ASUS43 KEAX 221010
RWREAX

WEATHER ROUNDUP FOR EASTERN KANSAS AND NORTHWEST MISSOURI
NATIONAL WEATHER SERVICE KANSAS CITY/PLEASANT HILL MO
500 AM CDT SAT JUL 22 2017

KSZ040-057-103>105-MOZ028-029-037-043-221100-
...KANSAS CITY METROPOLITAN AREA...

CITY           SKY/WX    TMP DP  RH WIND       PRES   REMARKS
K.C. INTL      CLEAR     82  72  71 SW18G25   29.82R
K.C. DOWNTOWN  CLEAR     86  73  65 SW14      29.81R HX  93
LEES SUMMIT    CLEAR     82  73  74 SW14      29.85R
OLATHE - IXD   CLEAR     82  72  71 S16       29.85S
OLATHE - OJC   CLEAR     81  73  76 SW9G20    29.85S
LAWRENCE       CLEAR     84  72  67 S12       29.82S

$$

MOZ001>008-011>017-020>025-030>033-038>040-044>046-053-054-221100-
...NORTHERN AND CENTRAL MISSOURI...

CITY           SKY/WX    TMP DP  RH WIND       PRES   REMARKS
ST. JOSEPH     CLEAR     82  74  76 SW10      29.78R
MOSBY          SUNNY     82  70  65 S6        29.81S
WARRENSBURG    CLEAR     81  70  69 S9        29.85R
WHITEMAN AFB   CLEAR     81  74  79 SW14      29.85R
CLINTON        CLEAR     81  72  74 SW9       29.88S
SEDALIA        CLEAR     82  73  74 SW13      29.88R
WARSAW         NOT AVBL
CHILLICOTHE      N/A     83  74  74 S10       29.80S
KIRKSVILLE     MOCLDY    82  71  69 SW14G21   29.81F

$$

MOZ041-047>049-056>058-063>065-088>090-097-221100-
...EASTERN AND SOUTHERN MISSOURI...

CITY           SKY/WX    TMP DP  RH WIND       PRES   REMARKS
ST. LOUIS INTL PTCLDY    86  72  62 SW14      29.86F HX  92
SPIRIT OF STL  CLEAR     82  73  74 SW8       29.85F
COLUMBIA       CLEAR     76  70  82 S5        29.88R
JEFFERSON CITY CLEAR     80  72  76 S6        29.87R
ROLLA          CLEAR     75  72  90 S9        29.91R
OSAGE BEACH    CLEAR     80  71  74 SW8       29.91R
SPRINGFIELD    CLEAR     74  71  91 S6        29.94R
BRANSON          N/A     77  68  73 SW7       29.96R
JOPLIN         CLEAR     81  72  74 S9        29.91S
WEST PLAINS    CLEAR     76  72  87 SW6       29.96R

$$

IAZ060-094-KSZ022-034>040-054-083-096-NEZ052-066-093-221100-
...KANSAS...SOUTHEAST NEBRASKA AND IOWA...

CITY           SKY/WX    TMP DP  RH WIND       PRES   REMARKS
TOPEKA         CLEAR     83  73  72 SW8       29.81R
MANHATTAN      CLEAR     84  67  56 SW12      29.80S
EMPORIA        CLEAR     81  70  69 S10       29.85S
CHANUTE        CLEAR     80  71  74 S9        29.89R
WICHITA        CLEAR     80  69  69 S10       29.87S
OMAHA          CLOUDY    80  75  84 N6        29.76R
LINCOLN        MOCLDY    80  68  66 W8        29.78S
LAMONI         CLOUDY    81  72  74 SW12      29.77R
DES MOINES     MOCLDY    82  73  74 SE3       29.77R

$$




USA.gov is the U.S. government's official web portal to all federal, state and local government web resources and services.